Location: ???????
(55.3754°N, 39.3545°E)
Time: 01:37:51
(UTC+00:00)

Cosmos 1833 Rocket - Pass Details

Date: 14 April 2026
Orbit: 831 x 839 km, 71.0° (Epoch: 20 May)

Event Time Altitude Azimuth Distance (km) Brightness Sun altitude
Exits shadow 23:35:49 33° 240° (WSW) 1,373 3.3 -19.3°
Maximum altitude 23:38:18 63° 309° (NW) 927 2.9 -19.1°
Drops below altitude 10° 23:43:53 10° 31° (NNE) 2,454 6.4 -18.6°
Sets 23:46:22 0° 35° (NE) 3,392 7.6 -18.4°
